Time,TemperatureF,DewpointF,PressureIn,WindDirection,WindDirectionDegrees,WindSpeedMPH,WindSpeedGustMPH,Humidity,HourlyPrecipIn,Conditions,Clouds,dailyrainin,SoftwareType,DateUTC
2013-09-09 00:01:00,47.3,42.1,30.07,NW,311,1.0,1.0,82,0.00,,,0.00,Wunderground v.1.15,2013-09-09 04:01:00,
2013-09-09 00:03:00,47.2,42.3,30.07,NW,311,1.0,2.0,83,0.00,,,0.00,Wunderground v.1.15,2013-09-09 04:03:00,
2013-09-09 00:09:00,47.0,42.1,30.07,NW,311,1.0,2.0,83,0.00,,,0.00,Wunderground v.1.15,2013-09-09 04:09:00,
2013-09-09 00:11:00,46.9,42.0,30.08,NW,311,1.0,1.0,83,0.00,,,0.00,Wunderground v.1.15,2013-09-09 04:11:00,
2013-09-09 00:12:00,46.9,42.0,30.08,NW,311,1.0,1.0,83,0.00,,,0.00,Wunderground v.1.15,2013-09-09 04:12:00,
2013-09-09 00:18:00,46.7,42.1,30.08,NW,311,0.0,1.0,84,0.00,,,0.00,Wunderground v.1.15,2013-09-09 04:18:00,
2013-09-09 00:19:00,46.7,42.1,30.08,NW,311,0.0,1.0,84,0.00,,,0.00,Wunderground v.1.15,2013-09-09 04:19:00,
2013-09-09 00:26:00,46.4,42.1,30.08,NW,311,1.0,1.0,85,0.00,,,0.00,Wunderground v.1.15,2013-09-09 04:26:00,
2013-09-09 00:32:00,46.3,42.0,30.08,NW,311,1.0,1.0,85,0.00,,,0.00,Wunderground v.1.15,2013-09-09 04:32:00,
2013-09-09 00:38:00,46.0,41.7,30.08,NW,311,0.0,1.0,85,0.00,,,0.00,Wunderground v.1.15,2013-09-09 04:38:00,
2013-09-09 00:44:00,45.8,41.5,30.07,NW,311,0.0,1.0,85,0.00,,,0.00,Wunderground v.1.15,2013-09-09 04:44:00,
2013-09-09 00:51:00,45.6,41.7,30.08,NW,310,1.0,1.0,86,0.00,,,0.00,Wunderground v.1.15,2013-09-09 04:51:00,
2013-09-09 00:56:00,45.4,41.5,30.08,NW,310,1.0,1.0,86,0.00,,,0.00,Wunderground v.1.15,2013-09-09 04:56:00,
2013-09-09 01:02:00,45.2,41.3,30.08,NW,310,0.0,1.0,86,0.00,,,0.00,Wunderground v.1.15,2013-09-09 05:02:00,
2013-09-09 01:08:00,45.1,41.5,30.08,NW,319,1.0,2.0,87,0.00,,,0.00,Wunderground v.1.15,2013-09-09 05:08:00,
2013-09-09 01:14:00,45.0,41.4,30.08,NW,319,1.0,1.0,87,0.00,,,0.00,Wunderground v.1.15,2013-09-09 05:14:00,
2013-09-09 01:19:00,44.9,41.3,30.09,NW,326,1.0,2.0,87,0.00,,,0.00,Wunderground v.1.15,2013-09-09 05:19:00,
2013-09-09 01:26:00,44.6,41.0,30.08,NW,307,1.0,1.0,87,0.00,,,0.00,Wunderground v.1.15,2013-09-09 05:26:00,
2013-09-09 01:32:00,44.6,41.3,30.09,WNW,303,1.0,1.0,88,0.00,,,0.00,Wunderground v.1.15,2013-09-09 05:32:00,
2013-09-09 01:37:00,44.8,41.2,30.09,WNW,303,1.0,1.0,87,0.00,,,0.00,Wunderground v.1.15,2013-09-09 05:37:00,
2013-09-09 01:43:00,44.9,41.3,30.08,WNW,296,1.0,2.0,87,0.00,,,0.00,Wunderground v.1.15,2013-09-09 05:43:00,
2013-09-09 01:49:00,44.9,41.3,30.09,NW,306,1.0,2.0,87,0.00,,,0.00,Wunderground v.1.15,2013-09-09 05:49:00,
2013-09-09 01:56:00,44.9,41.3,30.09,NW,306,1.0,2.0,87,0.00,,,0.00,Wunderground v.1.15,2013-09-09 05:56:00,
2013-09-09 02:01:00,44.7,41.1,30.09,NW,306,1.0,1.0,87,0.00,,,0.00,Wunderground v.1.15,2013-09-09 06:01:00,
2013-09-09 02:06:00,44.7,41.4,30.09,NW,306,1.0,1.0,88,0.00,,,0.00,Wunderground v.1.15,2013-09-09 06:06:00,
2013-09-09 02:12:00,44.5,41.2,30.09,NW,306,1.0,2.0,88,0.00,,,0.00,Wunderground v.1.15,2013-09-09 06:12:00,
2013-09-09 02:18:00,44.4,41.1,30.09,NW,306,1.0,2.0,88,0.00,,,0.00,Wunderground v.1.15,2013-09-09 06:18:00,
2013-09-09 02:24:00,44.3,41.0,30.10,NW,306,1.0,1.0,88,0.00,,,0.00,Wunderground v.1.15,2013-09-09 06:24:00,
2013-09-09 02:29:00,44.1,40.8,30.10,NW,306,1.0,2.0,88,0.00,,,0.00,Wunderground v.1.15,2013-09-09 06:29:00,
2013-09-09 02:36:00,43.9,40.6,30.09,NW,306,1.0,1.0,88,0.00,,,0.00,Wunderground v.1.15,2013-09-09 06:36:00,
2013-09-09 02:42:00,43.8,40.5,30.09,WNW,300,1.0,1.0,88,0.00,,,0.00,Wunderground v.1.15,2013-09-09 06:42:00,
2013-09-09 02:48:00,43.7,40.4,30.09,NW,304,1.0,2.0,88,0.00,,,0.00,Wunderground v.1.15,2013-09-09 06:48:00,
2013-09-09 02:54:00,43.6,40.3,30.09,NW,304,1.0,1.0,88,0.00,,,0.00,Wunderground v.1.15,2013-09-09 06:54:00,
2013-09-09 02:59:00,43.6,40.3,30.09,NW,309,1.0,2.0,88,0.00,,,0.00,Wunderground v.1.15,2013-09-09 06:59:00,
2013-09-09 03:06:00,43.5,40.2,30.10,NW,310,1.0,1.0,88,0.00,,,0.00,Wunderground v.1.15,2013-09-09 07:06:00,
2013-09-09 03:12:00,43.4,40.1,30.10,NW,309,1.0,1.0,88,0.00,,,0.00,Wunderground v.1.15,2013-09-09 07:12:00,
2013-09-09 03:17:00,43.3,40.0,30.11,NW,307,1.0,2.0,88,0.00,,,0.00,Wunderground v.1.15,2013-09-09 07:17:00,
2013-09-09 03:23:00,43.3,40.0,30.11,NW,307,0.0,1.0,88,0.00,,,0.00,Wunderground v.1.15,2013-09-09 07:23:00,
2013-09-09 03:29:00,43.3,40.0,30.11,NW,308,1.0,1.0,88,0.00,,,0.00,Wunderground v.1.15,2013-09-09 07:29:00,
2013-09-09 03:36:00,43.2,39.9,30.11,NW,307,0.0,1.0,88,0.00,,,0.00,Wunderground v.1.15,2013-09-09 07:36:00,
2013-09-09 03:42:00,43.1,39.8,30.11,NW,307,0.0,0.0,88,0.00,,,0.00,Wunderground v.1.15,2013-09-09 07:42:00,
2013-09-09 03:47:00,43.1,39.8,30.11,NW,308,0.0,1.0,88,0.00,,,0.00,Wunderground v.1.15,2013-09-09 07:47:00,
2013-09-09 03:53:00,43.0,40.0,30.11,NW,308,0.0,1.0,89,0.00,,,0.00,Wunderground v.1.15,2013-09-09 07:53:00,
2013-09-09 03:59:00,42.9,39.9,30.11,NW,307,1.0,1.0,89,0.00,,,0.00,Wunderground v.1.15,2013-09-09 07:59:00,
2013-09-09 04:06:00,42.8,39.5,30.12,NW,308,1.0,1.0,88,0.00,,,0.00,Wunderground v.1.15,2013-09-09 08:06:00,
2013-09-09 04:12:00,42.8,39.5,30.11,NW,308,1.0,1.0,88,0.00,,,0.00,Wunderground v.1.15,2013-09-09 08:12:00,
2013-09-09 04:17:00,42.7,39.4,30.11,NW,307,0.0,1.0,88,0.00,,,0.00,Wunderground v.1.15,2013-09-09 08:17:00,
2013-09-09 04:23:00,42.6,39.3,30.12,NW,308,0.0,1.0,88,0.00,,,0.00,Wunderground v.1.15,2013-09-09 08:23:00,
2013-09-09 04:29:00,42.6,39.6,30.12,NW,307,0.0,1.0,89,0.00,,,0.00,Wunderground v.1.15,2013-09-09 08:29:00,
2013-09-09 04:36:00,42.5,39.5,30.12,NW,308,0.0,1.0,89,0.00,,,0.00,Wunderground v.1.15,2013-09-09 08:36:00,
2013-09-09 04:42:00,42.4,39.4,30.13,NW,308,1.0,1.0,89,0.00,,,0.00,Wunderground v.1.15,2013-09-09 08:42:00,
2013-09-09 04:48:00,42.4,39.4,30.14,NW,307,0.0,1.0,89,0.00,,,0.00,Wunderground v.1.15,2013-09-09 08:48:00,
2013-09-09 04:54:00,42.3,39.3,30.14,NW,308,1.0,2.0,89,0.00,,,0.00,Wunderground v.1.15,2013-09-09 08:54:00,
2013-09-09 04:59:00,42.3,39.3,30.14,NW,307,1.0,2.0,89,0.00,,,0.00,Wunderground v.1.15,2013-09-09 08:59:00,
2013-09-09 05:06:00,42.2,39.2,30.14,NW,308,1.0,1.0,89,0.00,,,0.00,Wunderground v.1.15,2013-09-09 09:06:00,
2013-09-09 05:12:00,42.1,39.1,30.15,NW,307,1.0,2.0,89,0.00,,,0.00,Wunderground v.1.15,2013-09-09 09:12:00,
2013-09-09 05:17:00,42.1,39.1,30.15,NW,309,1.0,2.0,89,0.00,,,0.00,Wunderground v.1.15,2013-09-09 09:17:00,
2013-09-09 05:23:00,42.0,39.0,30.15,NW,309,1.0,1.0,89,0.00,,,0.00,Wunderground v.1.15,2013-09-09 09:23:00,
2013-09-09 05:29:00,41.8,38.8,30.15,NW,309,0.0,1.0,89,0.00,,,0.00,Wunderground v.1.15,2013-09-09 09:29:00,
2013-09-09 05:34:00,41.7,38.7,30.16,NW,309,0.0,1.0,89,0.00,,,0.00,Wunderground v.1.15,2013-09-09 09:34:00,
2013-09-09 05:41:00,41.6,38.6,30.16,NW,309,1.0,2.0,89,0.00,,,0.00,Wunderground v.1.15,2013-09-09 09:41:00,
2013-09-09 05:47:00,41.5,38.5,30.17,NW,311,1.0,2.0,89,0.00,,,0.00,Wunderground v.1.15,2013-09-09 09:47:00,
2013-09-09 05:53:00,41.4,38.4,30.17,NW,313,1.0,1.0,89,0.00,,,0.00,Wunderground v.1.15,2013-09-09 09:53:00,
2013-09-09 05:58:00,41.4,38.4,30.17,NW,314,0.0,1.0,89,0.00,,,0.00,Wunderground v.1.15,2013-09-09 09:58:00,
2013-09-09 06:04:00,41.2,38.2,30.17,NW,314,0.0,1.0,89,0.00,,,0.00,Wunderground v.1.15,2013-09-09 10:04:00,
2013-09-09 06:09:00,41.2,38.2,30.17,NW,314,0.0,1.0,89,0.00,,,0.00,Wunderground v.1.15,2013-09-09 10:09:00,
2013-09-09 06:16:00,41.1,38.1,30.18,NW,314,0.0,0.0,89,0.00,,,0.00,Wunderground v.1.15,2013-09-09 10:16:00,
2013-09-09 06:22:00,41.1,38.1,30.18,NW,314,0.0,0.0,89,0.00,,,0.00,Wunderground v.1.15,2013-09-09 10:22:00,
2013-09-09 06:28:00,41.0,39.4,30.18,NW,314,0.0,0.0,94,0.00,,,0.00,Wunderground v.1.15,2013-09-09 10:28:00,
2013-09-09 06:34:00,40.9,37.9,30.18,NW,314,0.0,0.0,89,0.00,,,0.00,Wunderground v.1.15,2013-09-09 10:34:00,
2013-09-09 06:41:00,40.7,37.7,30.18,NW,314,0.0,0.0,89,0.00,,,0.00,Wunderground v.1.15,2013-09-09 10:41:00,
2013-09-09 06:47:00,40.7,37.7,30.18,NW,314,0.0,2.0,89,0.00,,,0.00,Wunderground v.1.15,2013-09-09 10:47:00,
2013-09-09 06:53:00,40.6,37.6,30.19,NW,314,0.0,0.0,89,0.00,,,0.00,Wunderground v.1.15,2013-09-09 10:53:00,
2013-09-09 06:58:00,40.6,37.6,30.19,NW,314,0.0,0.0,89,0.00,,,0.00,Wunderground v.1.15,2013-09-09 10:58:00,
2013-09-09 07:04:00,40.6,37.6,30.19,NW,314,0.0,1.0,89,0.00,,,0.00,Wunderground v.1.15,2013-09-09 11:04:00,
2013-09-09 07:11:00,40.8,37.8,30.20,NW,314,0.0,0.0,89,0.00,,,0.00,Wunderground v.1.15,2013-09-09 11:11:00,
2013-09-09 07:16:00,41.0,38.0,30.19,NW,314,0.0,0.0,89,0.00,,,0.00,Wunderground v.1.15,2013-09-09 11:16:00,
2013-09-09 07:22:00,41.3,38.3,30.20,NW,314,0.0,0.0,89,0.00,,,0.00,Wunderground v.1.15,2013-09-09 11:22:00,
2013-09-09 07:27:00,41.5,38.5,30.20,NW,314,0.0,1.0,89,0.00,,,0.00,Wunderground v.1.15,2013-09-09 11:27:00,
2013-09-09 07:33:00,42.0,39.0,30.20,NW,314,1.0,1.0,89,0.00,,,0.00,Wunderground v.1.15,2013-09-09 11:33:00,
2013-09-09 07:39:00,42.5,39.5,30.20,NW,314,0.0,1.0,89,0.00,,,0.00,Wunderground v.1.15,2013-09-09 11:39:00,
2013-09-09 07:46:00,43.6,40.6,30.21,NNW,341,1.0,1.0,89,0.00,,,0.00,Wunderground v.1.15,2013-09-09 11:46:00,
2013-09-09 07:51:00,44.3,41.3,30.20,NW,310,1.0,1.0,89,0.00,,,0.00,Wunderground v.1.15,2013-09-09 11:51:00,
2013-09-09 07:57:00,45.4,42.3,30.20,NW,306,1.0,2.0,89,0.00,,,0.00,Wunderground v.1.15,2013-09-09 11:57:00,
2013-09-09 08:03:00,46.6,43.2,30.20,NW,317,1.0,1.0,88,0.00,,,0.00,Wunderground v.1.15,2013-09-09 12:03:00,
2013-09-09 08:08:00,47.5,43.5,30.20,WNW,300,1.0,2.0,86,0.00,,,0.00,Wunderground v.1.15,2013-09-09 12:08:00,
2013-09-09 08:14:00,48.4,44.1,30.20,North,11,1.0,2.0,85,0.00,,,0.00,Wunderground v.1.15,2013-09-09 12:14:00,
2013-09-09 08:21:00,49.5,44.2,30.20,WNW,301,1.0,1.0,82,0.00,,,0.00,Wunderground v.1.15,2013-09-09 12:21:00,
2013-09-09 08:27:00,50.4,44.5,30.20,NW,312,1.0,2.0,80,0.00,,,0.00,Wunderground v.1.15,2013-09-09 12:27:00,
2013-09-09 08:33:00,51.4,44.4,30.21,NNW,333,2.0,2.0,77,0.00,,,0.00,Wunderground v.1.15,2013-09-09 12:33:00,
2013-09-09 08:38:00,52.1,44.8,30.21,WNW,303,1.0,2.0,76,0.00,,,0.00,Wunderground v.1.15,2013-09-09 12:38:00,
2013-09-09 08:44:00,52.9,45.2,30.21,NW,323,1.0,1.0,75,0.00,,,0.00,Wunderground v.1.15,2013-09-09 12:44:00,
2013-09-09 08:51:00,53.6,45.5,30.21,NW,306,1.0,1.0,74,0.00,,,0.00,Wunderground v.1.15,2013-09-09 12:51:00,
2013-09-09 08:57:00,54.2,45.7,30.21,NW,323,1.0,1.0,73,0.00,,,0.00,Wunderground v.1.15,2013-09-09 12:57:00,
2013-09-09 09:02:00,54.7,46.2,30.21,WNW,288,1.0,1.0,73,0.00,,,0.00,Wunderground v.1.15,2013-09-09 13:02:00,
2013-09-09 09:08:00,55.5,46.2,30.21,WNW,296,1.0,2.0,71,0.00,,,0.00,Wunderground v.1.15,2013-09-09 13:08:00,
2013-09-09 09:14:00,56.4,46.4,30.22,WNW,284,1.0,2.0,69,0.00,,,0.00,Wunderground v.1.15,2013-09-09 13:14:00,
2013-09-09 09:19:00,57.2,46.3,30.22,WNW,293,1.0,2.0,67,0.00,,,0.00,Wunderground v.1.15,2013-09-09 13:19:00,
2013-09-09 09:26:00,57.9,45.4,30.21,ENE,78,1.0,1.0,63,0.00,,,0.00,Wunderground v.1.15,2013-09-09 13:26:00,
2013-09-09 09:32:00,58.9,45.0,30.21,WNW,292,1.0,1.0,60,0.00,,,0.00,Wunderground v.1.15,2013-09-09 13:32:00,
2013-09-09 09:38:00,59.4,44.2,30.21,North,355,1.0,2.0,57,0.00,,,0.00,Wunderground v.1.15,2013-09-09 13:38:00,
2013-09-09 09:44:00,59.4,45.5,30.21,East,88,1.0,1.0,60,0.00,,,0.00,Wunderground v.1.15,2013-09-09 13:44:00,
2013-09-09 09:51:00,60.7,43.9,30.21,WNW,286,2.0,2.0,54,0.00,,,0.00,Wunderground v.1.15,2013-09-09 13:51:00,
2013-09-09 09:57:00,61.4,44.1,30.21,SSW,206,2.0,3.0,53,0.00,,,0.00,Wunderground v.1.15,2013-09-09 13:57:00,
2013-09-09 10:03:00,62.4,44.5,30.21,South,181,2.0,3.0,52,0.00,,,0.00,Wunderground v.1.15,2013-09-09 14:03:00,
2013-09-09 10:08:00,62.9,43.4,30.21,West,275,2.0,5.0,49,0.00,,,0.00,Wunderground v.1.15,2013-09-09 14:08:00,
2013-09-09 10:14:00,63.2,46.3,30.22,SW,225,2.0,3.0,54,0.00,,,0.00,Wunderground v.1.15,2013-09-09 14:14:00,
2013-09-09 10:21:00,63.9,44.9,30.21,SSW,192,2.0,2.0,50,0.00,,,0.00,Wunderground v.1.15,2013-09-09 14:21:00,
2013-09-09 10:27:00,64.2,45.7,30.21,West,261,2.0,4.0,51,0.00,,,0.00,Wunderground v.1.15,2013-09-09 14:27:00,
2013-09-09 10:33:00,64.3,45.3,30.21,WSW,255,2.0,2.0,50,0.00,,,0.00,Wunderground v.1.15,2013-09-09 14:33:00,
2013-09-09 10:39:00,64.4,45.9,30.21,WNW,294,2.0,3.0,51,0.00,,,0.00,Wunderground v.1.15,2013-09-09 14:39:00,
2013-09-09 10:44:00,64.1,44.5,30.21,West,269,2.0,4.0,49,0.00,,,0.00,Wunderground v.1.15,2013-09-09 14:44:00,
2013-09-09 10:51:00,63.7,43.6,30.21,SSW,200,2.0,2.0,48,0.00,,,0.00,Wunderground v.1.15,2013-09-09 14:51:00,
2013-09-09 10:57:00,63.1,43.6,30.21,West,281,2.0,4.0,49,0.00,,,0.00,Wunderground v.1.15,2013-09-09 14:57:00,
2013-09-09 11:03:00,63.2,44.2,30.21,SSW,205,2.0,5.0,50,0.00,,,0.00,Wunderground v.1.15,2013-09-09 15:03:00,
2013-09-09 11:08:00,63.8,44.8,30.20,SW,236,2.0,5.0,50,0.00,,,0.00,Wunderground v.1.15,2013-09-09 15:08:00,
2013-09-09 11:13:00,64.2,44.1,30.20,NW,307,2.0,3.0,48,0.00,,,0.00,Wunderground v.1.15,2013-09-09 15:13:00,
2013-09-09 11:19:00,64.2,44.1,30.20,North,360,2.0,3.0,48,0.00,,,0.00,Wunderground v.1.15,2013-09-09 15:19:00,
2013-09-09 11:26:00,64.2,44.6,30.20,SW,236,3.0,5.0,49,0.00,,,0.00,Wunderground v.1.15,2013-09-09 15:26:00,
2013-09-09 11:32:00,64.3,44.2,30.20,North,355,2.0,2.0,48,0.00,,,0.00,Wunderground v.1.15,2013-09-09 15:32:00,
2013-09-09 11:38:00,64.9,45.3,30.20,West,260,2.0,6.0,49,0.00,,,0.00,Wunderground v.1.15,2013-09-09 15:38:00,
2013-09-09 11:44:00,65.2,47.1,30.20,West,262,3.0,4.0,52,0.00,,,0.00,Wunderground v.1.15,2013-09-09 15:44:00,
2013-09-09 11:51:00,65.6,45.9,30.19,ENE,69,2.0,2.0,49,0.00,,,0.00,Wunderground v.1.15,2013-09-09 15:51:00,
2013-09-09 11:56:00,66.4,47.7,30.19,SSW,202,1.0,3.0,51,0.00,,,0.00,Wunderground v.1.15,2013-09-09 15:56:00,
2013-09-09 12:01:00,66.7,45.3,30.19,SSW,195,3.0,4.0,46,0.00,,,0.00,Wunderground v.1.15,2013-09-09 16:01:00,
2013-09-09 12:06:00,66.5,46.2,30.19,WNW,301,4.0,4.0,48,0.00,,,0.00,Wunderground v.1.15,2013-09-09 16:06:00,
2013-09-09 12:12:00,67.0,48.3,30.19,SE,133,3.0,6.0,51,0.00,,,0.00,Wunderground v.1.15,2013-09-09 16:12:00,
2013-09-09 12:17:00,67.3,46.4,30.19,WSW,252,3.0,6.0,47,0.00,,,0.00,Wunderground v.1.15,2013-09-09 16:17:00,
2013-09-09 12:23:00,67.0,46.7,30.19,NW,326,3.0,6.0,48,0.00,,,0.00,Wunderground v.1.15,2013-09-09 16:23:00,
2013-09-09 12:29:00,66.3,45.5,30.18,West,277,3.0,6.0,47,0.00,,,0.00,Wunderground v.1.15,2013-09-09 16:29:00,
2013-09-09 12:36:00,65.8,46.6,30.18,WSW,243,2.0,4.0,50,0.00,,,0.00,Wunderground v.1.15,2013-09-09 16:36:00,
2013-09-09 12:42:00,66.6,46.8,30.18,WNW,303,2.0,3.0,49,0.00,,,0.00,Wunderground v.1.15,2013-09-09 16:42:00,
2013-09-09 12:48:00,67.5,47.7,30.18,South,171,2.0,5.0,49,0.00,,,0.00,Wunderground v.1.15,2013-09-09 16:48:00,
2013-09-09 12:54:00,68.2,47.8,30.17,West,279,3.0,3.0,48,0.00,,,0.00,Wunderground v.1.15,2013-09-09 16:54:00,
2013-09-09 12:59:00,68.8,48.3,30.18,West,269,3.0,6.0,48,0.00,,,0.00,Wunderground v.1.15,2013-09-09 16:59:00,
2013-09-09 13:06:00,68.8,48.9,30.18,South,184,3.0,3.0,49,0.00,,,0.00,Wunderground v.1.15,2013-09-09 17:06:00,
2013-09-09 13:12:00,68.8,48.3,30.18,NNW,344,3.0,3.0,48,0.00,,,0.00,Wunderground v.1.15,2013-09-09 17:12:00,
2013-09-09 13:18:00,68.9,48.4,30.17,SSE,164,2.0,5.0,48,0.00,,,0.00,Wunderground v.1.15,2013-09-09 17:18:00,
2013-09-09 13:24:00,69.5,50.0,30.18,WSW,244,3.0,3.0,50,0.00,,,0.00,Wunderground v.1.15,2013-09-09 17:24:00,
2013-09-09 13:31:00,68.8,46.6,30.18,North,360,3.0,3.0,45,0.00,,,0.00,Wunderground v.1.15,2013-09-09 17:31:00,
2013-09-09 13:37:00,67.6,46.6,30.17,NE,48,3.0,9.0,47,0.00,,,0.00,Wunderground v.1.15,2013-09-09 17:37:00,
2013-09-09 13:43:00,67.3,46.4,30.18,West,274,3.0,5.0,47,0.00,,,0.00,Wunderground v.1.15,2013-09-09 17:43:00,
2013-09-09 13:49:00,66.7,46.9,30.17,WSW,249,3.0,5.0,49,0.00,,,0.00,Wunderground v.1.15,2013-09-09 17:49:00,
2013-09-09 13:56:00,66.7,47.5,30.17,WNW,296,3.0,5.0,50,0.00,,,0.00,Wunderground v.1.15,2013-09-09 17:56:00,
2013-09-09 14:01:00,67.1,48.4,30.17,NW,306,3.0,4.0,51,0.00,,,0.00,Wunderground v.1.15,2013-09-09 18:01:00,
2013-09-09 14:06:00,67.2,46.8,30.16,West,269,3.0,6.0,48,0.00,,,0.00,Wunderground v.1.15,2013-09-09 18:06:00,
2013-09-09 14:12:00,67.6,47.2,30.16,North,5,3.0,3.0,48,0.00,,,0.00,Wunderground v.1.15,2013-09-09 18:12:00,
2013-09-09 14:18:00,67.9,47.5,30.16,SSW,211,3.0,5.0,48,0.00,,,0.00,Wunderground v.1.15,2013-09-09 18:18:00,
2013-09-09 14:24:00,68.2,46.0,30.16,WNW,284,3.0,4.0,45,0.00,,,0.00,Wunderground v.1.15,2013-09-09 18:24:00,
2013-09-09 14:31:00,68.3,46.7,30.16,SW,228,3.0,3.0,46,0.00,,,0.00,Wunderground v.1.15,2013-09-09 18:31:00,
2013-09-09 14:36:00,68.2,47.8,30.16,NW,314,3.0,6.0,48,0.00,,,0.00,Wunderground v.1.15,2013-09-09 18:36:00,
2013-09-09 14:41:00,67.9,47.5,30.16,NNW,332,3.0,3.0,48,0.00,,,0.00,Wunderground v.1.15,2013-09-09 18:41:00,
2013-09-09 14:47:00,67.2,46.8,30.16,WSW,252,3.0,5.0,48,0.00,,,0.00,Wunderground v.1.15,2013-09-09 18:47:00,
2013-09-09 14:52:00,66.7,46.4,30.16,NNW,330,3.0,5.0,48,0.00,,,0.00,Wunderground v.1.15,2013-09-09 18:52:00,
2013-09-09 14:58:00,66.2,48.0,30.16,SSW,195,3.0,7.0,52,0.00,,,0.00,Wunderground v.1.15,2013-09-09 18:58:00,
2013-09-09 15:04:00,66.3,48.1,30.16,SSW,211,3.0,6.0,52,0.00,,,0.00,Wunderground v.1.15,2013-09-09 19:04:00,
2013-09-09 15:09:00,66.5,48.3,30.16,South,171,3.0,6.0,52,0.00,,,0.00,Wunderground v.1.15,2013-09-09 19:09:00,
2013-09-09 15:16:00,66.4,48.7,30.17,West,266,2.0,5.0,53,0.00,,,0.00,Wunderground v.1.15,2013-09-09 19:16:00,
2013-09-09 15:22:00,66.4,49.2,30.16,SSW,201,2.0,3.0,54,0.00,,,0.00,Wunderground v.1.15,2013-09-09 19:22:00,
2013-09-09 15:28:00,66.3,49.2,30.16,SW,230,2.0,4.0,54,0.00,,,0.00,Wunderground v.1.15,2013-09-09 19:28:00,
2013-09-09 15:34:00,66.2,49.1,30.16,South,191,3.0,6.0,54,0.00,,,0.00,Wunderground v.1.15,2013-09-09 19:34:00,
2013-09-09 15:39:00,66.2,49.6,30.16,South,188,4.0,6.0,55,0.00,,,0.00,Wunderground v.1.15,2013-09-09 19:39:00,
2013-09-09 15:44:00,66.1,49.9,30.16,SSW,205,4.0,5.0,56,0.00,,,0.00,Wunderground v.1.15,2013-09-09 19:44:00,
2013-09-09 15:51:00,66.1,49.9,30.17,SSE,168,3.0,5.0,56,0.00,,,0.00,Wunderground v.1.15,2013-09-09 19:51:00,
2013-09-09 15:56:00,66.0,50.8,30.16,SSE,159,3.0,5.0,58,0.00,,,0.00,Wunderground v.1.15,2013-09-09 19:56:00,
2013-09-09 16:01:00,66.1,50.4,30.16,ENE,74,4.0,4.0,57,0.00,,,0.00,Wunderground v.1.15,2013-09-09 20:01:00,
2013-09-09 16:06:00,66.1,49.9,30.16,WNW,292,3.0,5.0,56,0.00,,,0.00,Wunderground v.1.15,2013-09-09 20:06:00,
2013-09-09 16:12:00,65.9,49.3,30.16,NNW,346,2.0,3.0,55,0.00,,,0.00,Wunderground v.1.15,2013-09-09 20:12:00,
2013-09-09 16:18:00,65.7,48.6,30.16,WSW,243,3.0,5.0,54,0.00,,,0.00,Wunderground v.1.15,2013-09-09 20:18:00,
2013-09-09 16:24:00,65.5,48.4,30.16,NW,318,3.0,5.0,54,0.00,,,0.00,Wunderground v.1.15,2013-09-09 20:24:00,
2013-09-09 16:31:00,65.4,47.8,30.15,WSW,246,3.0,3.0,53,0.00,,,0.00,Wunderground v.1.15,2013-09-09 20:31:00,
2013-09-09 16:37:00,65.2,49.1,30.15,SSW,213,2.0,3.0,56,0.00,,,0.00,Wunderground v.1.15,2013-09-09 20:37:00,
2013-09-09 16:43:00,65.3,48.7,30.15,ESE,121,3.0,5.0,55,0.00,,,0.00,Wunderground v.1.15,2013-09-09 20:43:00,
2013-09-09 16:49:00,65.3,49.7,30.15,South,190,3.0,5.0,57,0.00,,,0.00,Wunderground v.1.15,2013-09-09 20:49:00,
2013-09-09 16:54:00,65.3,49.7,30.15,SSW,192,2.0,3.0,57,0.00,,,0.00,Wunderground v.1.15,2013-09-09 20:54:00,
2013-09-09 16:59:00,65.4,49.8,30.15,SW,215,3.0,4.0,57,0.00,,,0.00,Wunderground v.1.15,2013-09-09 20:59:00,
2013-09-09 17:06:00,65.5,50.3,30.15,SSW,206,3.0,8.0,58,0.00,,,0.00,Wunderground v.1.15,2013-09-09 21:06:00,
2013-09-09 17:12:00,65.5,49.9,30.14,WNW,287,3.0,4.0,57,0.00,,,0.00,Wunderground v.1.15,2013-09-09 21:12:00,
2013-09-09 17:18:00,65.3,49.7,30.15,WSW,242,3.0,4.0,57,0.00,,,0.00,Wunderground v.1.15,2013-09-09 21:18:00,
2013-09-09 17:23:00,65.2,49.6,30.15,SSW,194,3.0,8.0,57,0.00,,,0.00,Wunderground v.1.15,2013-09-09 21:23:00,
2013-09-09 17:29:00,65.1,50.0,30.15,WSW,241,3.0,8.0,58,0.00,,,0.00,Wunderground v.1.15,2013-09-09 21:29:00,
2013-09-09 17:36:00,64.9,49.8,30.14,North,349,3.0,4.0,58,0.00,,,0.00,Wunderground v.1.15,2013-09-09 21:36:00,
2013-09-09 17:42:00,64.9,50.2,30.15,SW,235,3.0,3.0,59,0.00,,,0.00,Wunderground v.1.15,2013-09-09 21:42:00,
2013-09-09 17:47:00,64.9,50.2,30.14,NW,323,3.0,5.0,59,0.00,,,0.00,Wunderground v.1.15,2013-09-09 21:47:00,
2013-09-09 17:53:00,64.7,50.0,30.15,South,187,3.0,5.0,59,0.00,,,0.00,Wunderground v.1.15,2013-09-09 21:53:00,
2013-09-09 17:59:00,64.7,50.9,30.14,West,275,2.0,5.0,61,0.00,,,0.00,Wunderground v.1.15,2013-09-09 21:59:00,
2013-09-09 18:06:00,64.3,50.1,30.14,WSW,244,1.0,3.0,60,0.00,,,0.00,Wunderground v.1.15,2013-09-09 22:06:00,
2013-09-09 18:12:00,64.0,50.7,30.14,South,190,2.0,2.0,62,0.00,,,0.00,Wunderground v.1.15,2013-09-09 22:12:00,
2013-09-09 18:17:00,63.6,51.2,30.15,SW,214,1.0,2.0,64,0.00,,,0.00,Wunderground v.1.15,2013-09-09 22:17:00,
2013-09-09 18:23:00,63.2,50.4,30.14,SW,219,1.0,1.0,63,0.00,,,0.00,Wunderground v.1.15,2013-09-09 22:23:00,
2013-09-09 18:29:00,62.9,50.5,30.14,SW,215,2.0,2.0,64,0.00,,,0.00,Wunderground v.1.15,2013-09-09 22:29:00,
2013-09-09 18:36:00,62.5,51.0,30.14,SW,225,1.0,2.0,66,0.00,,,0.00,Wunderground v.1.15,2013-09-09 22:36:00,
2013-09-09 18:42:00,62.1,51.0,30.14,South,188,1.0,1.0,67,0.00,,,0.00,Wunderground v.1.15,2013-09-09 22:42:00,
2013-09-09 18:48:00,61.7,50.6,30.14,SSW,201,1.0,2.0,67,0.00,,,0.00,Wunderground v.1.15,2013-09-09 22:48:00,
2013-09-09 18:54:00,61.3,50.2,30.14,SSW,203,1.0,2.0,67,0.00,,,0.00,Wunderground v.1.15,2013-09-09 22:54:00,
2013-09-09 18:59:00,61.1,50.8,30.13,SSW,210,1.0,3.0,69,0.00,,,0.00,Wunderground v.1.15,2013-09-09 22:59:00,
2013-09-09 19:06:00,60.7,50.9,30.14,South,173,2.0,5.0,70,0.00,,,0.00,Wunderground v.1.15,2013-09-09 23:06:00,
2013-09-09 19:12:00,60.3,50.5,30.14,SE,145,2.0,2.0,70,0.00,,,0.00,Wunderground v.1.15,2013-09-09 23:12:00,
2013-09-09 19:18:00,59.9,50.5,30.14,SSW,192,3.0,3.0,71,0.00,,,0.00,Wunderground v.1.15,2013-09-09 23:18:00,
2013-09-09 19:24:00,59.6,50.2,30.14,SSW,205,2.0,3.0,71,0.00,,,0.00,Wunderground v.1.15,2013-09-09 23:24:00,
2013-09-09 19:31:00,59.0,50.0,30.13,SW,225,2.0,2.0,72,0.00,,,0.00,Wunderground v.1.15,2013-09-09 23:31:00,
2013-09-09 19:37:00,59.0,50.0,30.13,SSW,209,2.0,4.0,72,0.00,,,0.00,Wunderground v.1.15,2013-09-09 23:37:00,
2013-09-09 19:42:00,58.9,50.3,30.13,SSW,194,2.0,2.0,73,0.00,,,0.00,Wunderground v.1.15,2013-09-09 23:42:00,
2013-09-09 19:48:00,58.6,50.0,30.13,South,188,2.0,5.0,73,0.00,,,0.00,Wunderground v.1.15,2013-09-09 23:48:00,
2013-09-09 19:54:00,58.4,49.8,30.14,SSW,206,2.0,4.0,73,0.00,,,0.00,Wunderground v.1.15,2013-09-09 23:54:00,
2013-09-09 20:01:00,58.1,49.9,30.14,SW,216,3.0,3.0,74,0.00,,,0.00,Wunderground v.1.15,2013-09-10 00:01:00,
2013-09-09 20:06:00,58.0,49.8,30.14,South,186,2.0,3.0,74,0.00,,,0.00,Wunderground v.1.15,2013-09-10 00:06:00,
2013-09-09 20:12:00,58.0,49.8,30.14,SW,215,2.0,4.0,74,0.00,,,0.00,Wunderground v.1.15,2013-09-10 00:12:00,
2013-09-09 20:18:00,57.9,49.7,30.14,SSW,198,2.0,4.0,74,0.00,,,0.00,Wunderground v.1.15,2013-09-10 00:18:00,
2013-09-09 20:23:00,57.9,49.7,30.14,West,269,2.0,3.0,74,0.00,,,0.00,Wunderground v.1.15,2013-09-10 00:23:00,
2013-09-09 20:29:00,57.9,50.0,30.14,SW,222,2.0,4.0,75,0.00,,,0.00,Wunderground v.1.15,2013-09-10 00:29:00,
2013-09-09 20:34:00,57.8,49.9,30.14,South,184,2.0,3.0,75,0.00,,,0.00,Wunderground v.1.15,2013-09-10 00:34:00,
2013-09-09 20:39:00,57.8,50.3,30.14,SW,217,2.0,4.0,76,0.00,,,0.00,Wunderground v.1.15,2013-09-10 00:39:00,
2013-09-09 20:46:00,57.7,50.2,30.14,South,185,2.0,5.0,76,0.00,,,0.00,Wunderground v.1.15,2013-09-10 00:46:00,
2013-09-09 20:52:00,57.7,50.2,30.14,South,175,2.0,4.0,76,0.00,,,0.00,Wunderground v.1.15,2013-09-10 00:52:00,
2013-09-09 20:58:00,57.7,50.2,30.14,SSW,199,2.0,4.0,76,0.00,,,0.00,Wunderground v.1.15,2013-09-10 00:58:00,
2013-09-09 21:04:00,57.6,50.1,30.14,SW,220,2.0,7.0,76,0.00,,,0.00,Wunderground v.1.15,2013-09-10 01:04:00,
2013-09-09 21:09:00,57.6,50.4,30.14,SSW,209,3.0,7.0,77,0.00,,,0.00,Wunderground v.1.15,2013-09-10 01:09:00,
2013-09-09 21:16:00,57.5,50.7,30.14,SSW,197,2.0,4.0,78,0.00,,,0.00,Wunderground v.1.15,2013-09-10 01:16:00,
2013-09-09 21:22:00,57.3,50.5,30.14,SE,135,3.0,3.0,78,0.00,,,0.00,Wunderground v.1.15,2013-09-10 01:22:00,
2013-09-09 21:28:00,57.3,50.5,30.14,SW,215,2.0,4.0,78,0.00,,,0.00,Wunderground v.1.15,2013-09-10 01:28:00,
2013-09-09 21:33:00,57.1,50.6,30.15,West,264,1.0,4.0,79,0.00,,,0.00,Wunderground v.1.15,2013-09-10 01:33:00,
2013-09-09 21:39:00,56.9,50.5,30.14,South,178,1.0,4.0,79,0.00,,,0.00,Wunderground v.1.15,2013-09-10 01:39:00,
2013-09-09 21:44:00,56.8,50.7,30.14,South,181,2.0,3.0,80,0.00,,,0.00,Wunderground v.1.15,2013-09-10 01:44:00,
2013-09-09 21:51:00,56.7,50.6,30.14,NW,313,2.0,2.0,80,0.00,,,0.00,Wunderground v.1.15,2013-09-10 01:51:00,
2013-09-09 21:57:00,56.6,50.5,30.14,SSW,202,2.0,3.0,80,0.00,,,0.00,Wunderground v.1.15,2013-09-10 01:57:00,
2013-09-09 22:02:00,56.6,50.5,30.15,SW,225,2.0,2.0,80,0.00,,,0.00,Wunderground v.1.15,2013-09-10 02:02:00,
2013-09-09 22:07:00,56.5,50.4,30.14,West,271,1.0,2.0,80,0.00,,,0.00,Wunderground v.1.15,2013-09-10 02:07:00,
2013-09-09 22:13:00,56.5,50.7,30.15,SSW,207,1.0,1.0,81,0.00,,,0.00,Wunderground v.1.15,2013-09-10 02:13:00,
2013-09-09 22:18:00,56.5,50.7,30.15,WSW,238,1.0,2.0,81,0.00,,,0.00,Wunderground v.1.15,2013-09-10 02:18:00,
2013-09-09 22:24:00,56.5,50.7,30.15,SW,218,1.0,3.0,81,0.00,,,0.00,Wunderground v.1.15,2013-09-10 02:24:00,
2013-09-09 22:31:00,56.4,50.6,30.15,West,278,1.0,1.0,81,0.00,,,0.00,Wunderground v.1.15,2013-09-10 02:31:00,
2013-09-09 22:37:00,56.3,50.5,30.15,SSW,205,1.0,3.0,81,0.00,,,0.00,Wunderground v.1.15,2013-09-10 02:37:00,
2013-09-09 22:42:00,56.1,50.3,30.15,South,178,2.0,3.0,81,0.00,,,0.00,Wunderground v.1.15,2013-09-10 02:42:00,
2013-09-09 22:48:00,55.9,50.5,30.14,South,169,2.0,3.0,82,0.00,,,0.00,Wunderground v.1.15,2013-09-10 02:48:00,
2013-09-09 22:53:00,55.8,50.4,30.15,WSW,244,2.0,4.0,82,0.00,,,0.00,Wunderground v.1.15,2013-09-10 02:53:00,
2013-09-09 22:59:00,55.6,50.2,30.15,SW,227,2.0,4.0,82,0.00,,,0.00,Wunderground v.1.15,2013-09-10 02:59:00,
2013-09-09 23:06:00,55.6,50.5,30.14,South,190,2.0,3.0,83,0.00,,,0.00,Wunderground v.1.15,2013-09-10 03:06:00,
2013-09-09 23:12:00,55.5,50.4,30.14,SSW,198,2.0,4.0,83,0.00,,,0.00,Wunderground v.1.15,2013-09-10 03:12:00,
2013-09-09 23:18:00,55.3,50.2,30.14,SW,219,2.0,4.0,83,0.00,,,0.00,Wunderground v.1.15,2013-09-10 03:18:00,
2013-09-09 23:24:00,55.1,50.0,30.13,SW,233,1.0,2.0,83,0.00,,,0.00,Wunderground v.1.15,2013-09-10 03:24:00,
2013-09-09 23:29:00,54.9,50.2,30.13,South,173,1.0,3.0,84,0.00,,,0.00,Wunderground v.1.15,2013-09-10 03:29:00,
2013-09-09 23:36:00,54.6,49.9,30.14,South,190,2.0,2.0,84,0.00,,,0.00,Wunderground v.1.15,2013-09-10 03:36:00,
2013-09-09 23:42:00,54.5,49.8,30.14,South,187,2.0,2.0,84,0.00,,,0.00,Wunderground v.1.15,2013-09-10 03:42:00,
2013-09-09 23:48:00,54.4,50.0,30.14,SW,225,1.0,3.0,85,0.00,,,0.00,Wunderground v.1.15,2013-09-10 03:48:00,
2013-09-09 23:53:00,54.4,50.0,30.13,SW,221,1.0,1.0,85,0.00,,,0.00,Wunderground v.1.15,2013-09-10 03:53:00,
2013-09-09 23:58:00,54.4,50.0,30.14,South,171,1.0,2.0,85,0.00,,,0.00,Wunderground v.1.15,2013-09-10 03:58:00,